Tracking 32954 objects as of 18-Jan-2026
HD Live streaming from Space Station
objects crossing your sky now

OV3-3

Track OV3-3 now!
10-day predictions
OV3-3 is classified as:


NORAD ID: 2389
Int'l Code: 1966-070A
Perigee: 341.3 km
Apogee: 1,883.9 km
Inclination: 81.3 °
Period: 107.4 minutes
Semi major axis: 7483 km
RCS: 0.7052 m2 (medium)
Launch date: August 4, 1966
Source: United States (US)
Launch site: AIR FORCE WESTERN TEST RANGE (AFWTR)
Your satellite tracking list
Your tracking list is empty




NASA's NSSDC Master Catalog

Two Line Element Set (TLE):
1 02389U 66070A   26017.91659348  .00019462  00000-0  88623-3 0  9994
2 02389  81.3273 103.1979 1030657 186.4625 172.2320 13.41015869578793
Source of the keplerian elements: AFSPC